STARLINK-3892, 52488

Orbit data source: Space-Track

STARLINK-3892, 52488 is a payload satellite owned by SpaceX/Seattle (US) in LEO that was launched on Fri, 06 May 2022 UTC via an FALCON 9 launch vehicle from the Air Force Eastern Test Range (AFETR). Payload-class satellites include a variety of spacecraft equipped with specific instruments for various scientific and technological missions. These include communications satellites like Starlink; space stations such as the ISS; scientific satellites like the Hubble; Earth observation satellites from companies like Planet Labs, Umbra, and HawkEye 360; GPS; miniature CubeSats for education and research; and military/defense satellites.

Loading next visibility...
Identifier
52488, 2022-049AP
Orbit
LEO
Country
Flag of USUS
Related business
Manufacturer
SpaceX/Seattle
Mission
Operational Commercial Communications
Bus & Motor
STARLINK, Unknown motor
Mass
297 kg wet, ~220 kg dry
Launch date (UTC)
2022-05-06 (4 years ago)
Launch vehicle
FALCON 9
Launch site
Air Force Eastern Test Range (AFETR)
Object type
Payload
Rocket body
Debris
Shape & HBR
Box + 1 Pan, 10.1 m
Radar Cross Section
13.562 m², Large (>1 m²)

Expand to show TLE details & history
Last TLE update: 21 hours ago

TLE from 21 hours ago
0 STARLINK-3892
1 52488U 22049AP  25349.62107393  .00000648  00000-0  58762-4 0  9998
2 52488  53.2176  76.5192 0001215  88.7369 271.3763 15.08844997199567
Epoch: 2025-12-15T14:54Z
TLE epoch observation values (Epoch: 2025-12-15T14:54:20.787Z)
Latitude
0.00003°
Longitude
128.41559°
Altitude
540.606 km
Speed
7.593 km/s
True Right ascension
05h 06m 04s
True Declination
0° 00' 00"
Sunlit
Object was in full shadow at epoch
Visualization orbit readout
Latitude
Unknown
Longitude
Unknown
Altitude
Unknown
Speed
Unknown
Apparent Right ascension
Unknown
Apparent Declination
Unknown
Sunlit
N/A
Visualization observer readout
Local Sidereal Time
10:52:26
Azimuth
Unknown
Elevation
Unknown
Doppler factor
Unknown
Orbital elements
Apogee altitude
540.814 km
Perigee altitude
539.132 km
Semi-major axis
6,918.11 km
Eccentricity
0.00012
Inclination
53.2176°
RAAN
76.5192°
Arg. of periapsis
88.7369°
True anomaly
271.36238°
Mean anomaly
271.3763°
Eccentric anomaly
271.36934°
Mean motion
3.77192 °/min
Orbital period
95.44 mins
BSTAR
0.000058762
Loading maneuver chart data...
Computing Atmospheric mass density...
Loading historical data...
Loading historical data...
Loading historical data...
Loading historical data...
Loading historical data...
Loading historical data...
Loading historical data...

Documentation

Showing up to 5 results
|